STARLINK-35498

Last updated on Fri Dec 19 2025 00:02:09 GMT+0000 (Coordinated Universal Time)

1 67017U 25293Q 25351.83335648 -.01018757 33332-3 -22140-2 0 9997 2 67017 69.9931 309.0075 0004006 264.5836 138.0394 15.98107102 2271
UTC large
Height (km)
Speed (km/s)
/
Latitude / Longitude
Inclination (degrees)
Orbital Period (minutes)
Azimuth
Elevation
Range (km)
Doppler Factor

Next 0 passes for location: London (51.5072 / 0.1276)

Sorry there are no passes over London.